| time (UTC) | temp C | wind direction | speed KPH | gust KPH | rain 1hr cm | rain 24hr cm | rain mn cm | humidity % | barometer mb |
| 20260505004640 | 15 | 259 | 0.0 | 3.2 | 0.00 | 0.00 | 0.00 | 70 | 1011.7 |
| 20260505002642 | 15 | 46 | 0.0 | 3.2 | 0.00 | 0.00 | 0.00 | 67 | 1011.6 |
| 20260505001025 | 15 | 248 | 0.0 | 3.2 | 0.00 | 0.00 | 0.00 | 69 | 1011.9 |
| 20260504235137 | 15 | 214 | 0.0 | 1.6 | 0.00 | 0.00 | 0.00 | 67 | 1012.2 |
| 20260504233147 | 16 | 129 | 0.0 | 1.6 | 0.00 | 0.00 | 0.00 | 66 | 1012.6 |
| 20260504231151 | 15 | 127 | 3.2 | 8.0 | 0.00 | 0.00 | 0.00 | 67 | 1012.6 |
| 20260504225423 | 15 | 146 | 6.4 | 6.4 | 0.00 | 0.00 | 0.00 | 67 | 1012.7 |
| 20260504223802 | 16 | 162 | 1.6 | 3.2 | 0.00 | 0.00 | 0.00 | 66 | 1012.6 |
| 20260504221920 | 16 | 44 | 0.0 | 6.4 | 0.00 | 0.00 | 0.00 | 63 | 1012.4 |
| 20260504220053 | 17 | 44 | 3.2 | 8.0 | 0.00 | 0.00 | 0.00 | 63 | 1012.4 |
| 20260504214035 | 17 | 52 | 4.8 | 9.7 | 0.00 | 0.00 | 0.00 | 62 | 1012.5 |
| 20260504212417 | 17 | 42 | 3.2 | 9.7 | 0.00 | 0.00 | 0.00 | 62 | 1012.7 |
| 20260504210753 | 17 | 49 | 3.2 | 9.7 | 0.00 | 0.00 | 0.00 | 61 | 1012.8 |
| 20260504205130 | 17 | 38 | 4.8 | 8.0 | 0.00 | 0.00 | 0.00 | 59 | 1012.9 |
| 20260504203953 | 17 | 353 | 0.0 | 4.8 | 0.00 | 0.00 | 0.00 | 57 | 1013.0 |
| 20260504202548 | 17 | 318 | 0.0 | 6.4 | 0.00 | 0.00 | 0.00 | 58 | 1013.0 |
| 20260504200559 | 17 | 309 | 1.6 | 4.8 | 0.00 | 0.00 | 0.00 | 56 | 1012.9 |
| 20260504195046 | 19 | 105 | 4.8 | 4.8 | 0.00 | 0.00 | 0.00 | 49 | 1012.8 |
| 20260504193753 | 19 | 57 | 1.6 | 4.8 | 0.00 | 0.00 | 0.00 | 50 | 1012.7 |
| 20260504192138 | 19 | 88 | 4.8 | 4.8 | 0.00 | 0.00 | 0.00 | 50 | 1012.7 |
| 20260504190626 | 19 | 91 | 4.8 | 6.4 | 0.00 | 0.00 | 0.00 | 50 | 1012.5 |
| 20260504185117 | 19 | 110 | 3.2 | 4.8 | 0.00 | 0.00 | 0.00 | 50 | 1012.3 |
| 20260504183710 | 20 | 92 | 4.8 | 6.4 | 0.00 | 0.00 | 0.00 | 49 | 1012.3 |
| 20260504182201 | 20 | 98 | 6.4 | 8.0 | 0.00 | 0.00 | 0.00 | 48 | 1012.2 |
| 20260504180651 | 20 | 106 | 6.4 | 8.0 | 0.00 | 0.00 | 0.00 | 49 | 1012.2 |
| 20260504174810 | 20 | 91 | 6.4 | 9.7 | 0.00 | 0.00 | 0.00 | 48 | 1012.3 |
| 20260504173148 | 20 | 90 | 4.8 | 8.0 | 0.00 | 0.00 | 0.00 | 48 | 1012.3 |
| 20260504171545 | 20 | 75 | 1.6 | 6.4 | 0.00 | 0.00 | 0.00 | 49 | 1012.3 |
| 20260504160348 | 21 | 42 | 4.8 | 8.0 | 0.00 | 0.00 | 0.00 | 44 | 1012.7 |
| 20260504150127 | 22 | 38 | 4.8 | 9.7 | 0.00 | 0.00 | 0.00 | 42 | 1013.0 |
| 20260504140133 | 22 | 133 | 3.2 | 9.7 | 0.00 | 0.00 | 0.00 | 43 | 1013.3 |
| 20260504130239 | 22 | 47 | 4.8 | 12.9 | 0.00 | 0.00 | 0.00 | 43 | 1013.9 |
| 20260504120309 | 21 | 49 | 6.4 | 11.3 | 0.00 | 0.00 | 0.00 | 43 | 1014.3 |
| 20260504100141 | 20 | 281 | 6.4 | 12.9 | 0.00 | 0.00 | 0.00 | 48 | 1015.5 |
| 20260504081630 | 16 | 97 | 3.2 | 11.3 | 0.00 | 0.00 | 0.00 | 53 | 1015.5 |
| 20260504044632 | 9 | 298 | 4.8 | 8.0 | 0.00 | 0.00 | 0.00 | 74 | 1014.8 |
| 20260504043030 | 11 | 295 | 1.6 | 3.2 | 0.00 | 0.00 | 0.00 | 69 | 1014.4 |
| 20260504041536 | 10 | 76 | 1.6 | 4.8 | 0.00 | 0.00 | 0.00 | 70 | 1014.2 |
| 20260504040020 | 10 | 67 | 1.6 | 9.7 | 0.00 | 0.00 | 0.00 | 69 | 1014.0 |
| 20260504034623 | 11 | 17 | 4.8 | 6.4 | 0.00 | 0.00 | 0.00 | 65 | 1014.1 |
| 20260504033010 | 11 | 315 | 1.6 | 3.2 | 0.00 | 0.00 | 0.00 | 66 | 1014.4 |
| 20260504031514 | 11 | 316 | 0.0 | 1.6 | 0.00 | 0.00 | 0.00 | 66 | 1014.4 |
| 20260504030109 | 11 | 314 | 0.0 | 3.2 | 0.00 | 0.00 | 0.00 | 67 | 1014.4 |
| 20260504024520 | 12 | 333 | 0.0 | 3.2 | 0.00 | 0.00 | 0.00 | 65 | 1014.5 |
| 20260504023026 | 11 | 333 | 0.0 | 4.8 | 0.00 | 0.00 | 0.00 | 67 | 1014.3 |
| 20260504021510 | 11 | 304 | 4.8 | 8.0 | 0.00 | 0.00 | 0.00 | 68 | 1014.4 |
| 20260504020011 | 12 | 293 | 6.4 | 8.0 | 0.00 | 0.00 | 0.00 | 66 | 1014.3 |
| 20260504014518 | 12 | 297 | 3.2 | 4.8 | 0.00 | 0.00 | 0.00 | 65 | 1014.2 |
| 20260504013127 | 12 | 302 | 1.6 | 4.8 | 0.00 | 0.00 | 0.00 | 64 | 1014.0 |
| 20260504011526 | 13 | 36 | 0.0 | 1.6 | 0.00 | 0.00 | 0.00 | 59 | 1013.9 |